Sierra Vista, AZ

12:02 PM MST on June 25, 2017 (GMT -0700)
Sierra Vista Municipal-Libby Army Air Field

Weather History for KFHU - November, 2011

Change the Weather History Date:

Wednesday, November 9, 2011

  Actual Average Record
Temperature  
Mean Temperature 48 °F -  
Max Temperature 60 °F 67 °F 80 °F (2005)
Min Temperature 37 °F 45 °F 33 °F (2000)
Degree Days  
Heating Degree Days 16    
Moisture  
Dew Point 22 °F    
Average Humidity 40    
Maximum Humidity 70    
Minimum Humidity 19    
Precipitation  
Precipitation 0.00 in - - ()
Sea Level Pressure  
Sea Level Pressure 30.21 in    
Wind  
Wind Speed 5 mph (ESE)    
Max Wind Speed 15 mph    
Max Gust Speed 22 mph    
Visibility 10 miles    
Events      
Averages and records for this station are not official NWS values.
T = Trace of Precipitation, MM = Missing Value Source: NWS Daily Summary

Daily Weather History Graph

Daily Weather History Graph

Search for Another Location

Airport or City:

Trip Planner

Search our weather history database for the weather conditions in past years. The results will help you decide how hot, cold, wet, or windy it might be!

Date:

Astronomy

Nov. 09, 2011 Rise Set
Actual Time 6:43 AM MST 5:26 PM MST
Civil Twilight 6:18 AM MST 5:51 PM MST
Nautical Twilight 5:49 AM MST 6:20 PM MST
Astronomical Twilight 5:20 AM MST 6:49 PM MST
Moon 4:40 PM MST (11/9) 5:43 AM MST (11/9)
Length of Visible Light 11h 33m
Length of Day
10h 42m
Waxing Gibbous, 99% of the Moon is Illuminated
Nov 9
Waxing Gibbous
Nov 10
Full
Nov 18
Last Quarter
Nov 24
New
Dec 2
First Quarter

Hourly Weather History & Observations

Time (MST) Temp. Windchill Dew Point Humidity Pressure Visibility Wind Dir Wind Speed Gust Speed Precip Events Conditions
12:56 AM 44.1 °F - 28.9 °F 55% 30.17 in 10.0 mi Calm Calm - N/A   Clear
1:56 AM 41.0 °F - 28.9 °F 62% 30.17 in 10.0 mi Calm Calm - N/A   Clear
2:56 AM 39.0 °F 36.8 °F 28.9 °F 67% 30.17 in 10.0 mi SSE 3.5 mph - N/A   Clear
3:56 AM 39.0 °F - 28.0 °F 65% 30.16 in 10.0 mi Calm Calm - N/A   Clear
4:56 AM 39.0 °F 36.8 °F 28.0 °F 65% 30.17 in 10.0 mi North 3.5 mph - N/A   Clear
5:55 AM 37.4 °F - 28.4 °F 70% 30.20 in 10.0 mi Calm Calm - N/A   Partly Cloudy
6:55 AM 37.4 °F - 28.4 °F 70% 30.24 in 10.0 mi Calm Calm - N/A   Partly Cloudy
7:55 AM 39.2 °F 37.0 °F 30.2 °F 70% 30.26 in 10.0 mi Variable 3.5 mph - N/A   Clear
8:55 AM 46.4 °F - 28.4 °F 50% 30.26 in 10.0 mi Variable 1.2 mph - N/A   Clear
9:55 AM 51.8 °F - 26.6 °F 38% 30.25 in 10.0 mi Variable 6.9 mph - N/A   Clear
10:55 AM 55.4 °F - 26.6 °F 33% 30.23 in 10.0 mi East 10.4 mph - N/A   Clear
11:55 AM 60.8 °F - 21.2 °F 22% 30.20 in 10.0 mi ESE 6.9 mph 13.8 mph N/A   Clear
12:55 PM 60.8 °F - 19.4 °F 20% 30.18 in 10.0 mi ENE 15.0 mph 18.4 mph N/A   Clear
1:55 PM 60.8 °F - 17.6 °F 19% 30.17 in 10.0 mi East 11.5 mph 21.9 mph N/A   Clear
2:55 PM 60.8 °F - 17.6 °F 19% 30.19 in 10.0 mi ENE 8.1 mph - N/A   Clear
3:55 PM 60.8 °F - 17.6 °F 19% 30.18 in 10.0 mi East 10.4 mph 16.1 mph N/A   Clear
4:55 PM 57.2 °F - 17.6 °F 21% 30.19 in 10.0 mi East 10.4 mph - N/A   Clear
5:55 PM 53.6 °F - 15.8 °F 22% 30.22 in 10.0 mi ESE 11.5 mph - N/A   Clear
6:55 PM 48.2 °F - 15.8 °F 27% 30.26 in 10.0 mi ESE 9.2 mph - N/A   Clear
7:55 PM 44.6 °F 40.2 °F 15.8 °F 31% 30.26 in 10.0 mi ESE 8.1 mph - N/A   Clear
8:55 PM 48.2 °F - 17.6 °F 30% 30.25 in 10.0 mi SE 11.5 mph - N/A   Partly Cloudy
9:55 PM 44.6 °F 38.8 °F 17.6 °F 34% 30.26 in 10.0 mi ESE 11.5 mph - N/A   Partly Cloudy
10:55 PM 46.4 °F 40.7 °F 17.6 °F 32% 30.24 in 10.0 mi ESE 12.7 mph - N/A   Partly Cloudy
11:56 PM 46.0 °F 40.2 °F 16.0 °F 30% 30.23 in 10.0 mi ESE 12.7 mph - N/A   Clear